Regional Weather Roundup
Issued by NWS

Home | Current Version | Previous Version | Text Only | Print | Product List | Glossary Off
Versions: 1 2 3 4 5 6 7 8 9 10 11 12 13 14 15 16 17 18 19 20 21 22 23 24 25 26 27 28

000
ASUS45 KBOI 270210
RWRID

IDAHO REGIONAL WEATHER ROUNDUP
NATIONAL WEATHER SERVICE BOISE ID
800 PM MDT FRI MAY 26 2017

NOTE: "FAIR" INDICATES FEW OR NO CLOUDS BELOW 12000 FEET
WITH NO SIGNIFICANT WEATHER AND/OR OBSTRUCTIONS TO VISIBILITY

IDZ012-014-270300-
SOUTHWEST IDAHO


CITY           SKY/WX    TMP DP  RH WIND       PRES   REMARKS
BOISE          MOSUNNY   72  34  24 NW13      29.94R
CALDWELL       SUNNY     72  37  28 W8        29.94R
MOUNTAIN HOME  PTSUNNY   61  44  52 E17       30.00R
$$

IDZ016-017-270300-
SOUTHCENTRAL IDAHO


CITY           SKY/WX    TMP DP  RH WIND       PRES   REMARKS
BURLEY         PTCLDY    52  43  71 SW3       30.03R
JEROME         CLOUDY    53  44  71 SW6       30.04R
TWIN FALLS     CLOUDY    51  44  77 W8        30.05R
$$

IDZ019>023-270300-
SOUTHEAST IDAHO


CITY           SKY/WX    TMP DP  RH WIND       PRES   REMARKS
IDAHO FALLS    CLOUDY    47  41  80 SW6       30.03R
POCATELLO      PTCLDY    49  41  74 W5        30.04R
REXBURG        CLOUDY    44  42  93 W3        30.03R
$$

IDZ006-010-011-018-031-032-270300-
CENTRAL IDAHO MOUNTAINS


CITY           SKY/WX    TMP DP  RH WIND       PRES   REMARKS
MCCALL         MOSUNNY   60  29  30 N10       30.01R
HAILEY         PTSUNNY   48  45  87 SW7       30.07R
STANLEY          N/A     47  35  63 SE13G18   30.07R
SALMON         SUNNY     63  36  36 W6        29.93R
CHALLIS        MOSUNNY   59  32  36 W13       29.98R
$$

IDZ002-004-006-007-026-270300-
NORTHERN IDAHO


CITY           SKY/WX    TMP DP  RH WIND       PRES   REMARKS
LEWISTON       SUNNY     75  40  28 NW9       29.94R
LOWELL           N/A     60  52  74 N3        29.97R
COEUR D`ALENE  MOSUNNY   72  39  30 W10       29.95R
MULLAN PASS    MOSUNNY   53  28  38 NW6       30.05R
$$




USA.gov is the U.S. government's official web portal to all federal, state and local government web resources and services.